If you wish to contribute or participate in the discussions about articles you are invited to join SKYbrary as a registered user

 Actions

Nevers-Fourchambault Airport

From SKYbrary Wiki

LFQG
Airport
ICAO: LFQG – IATA: NVS
Summary
Name Nevers-Fourchambault Airport
Region Europe
Territory France FR.gif
Location , Bourgogne
Serving Nevers
Elevation 183.49 m
602 ft
602 ft183.49 m
Type medium airport
Coordinates 47° 0' 9.45" N, 3° 6' 48.00" E
Runways
Designator Length Width Surface ROPS
12/30 1630 m5,347.769 ft
30 m98.425 ft
ASP /


METAR
Observation LFQG 191200Z AUTO 32004KT 280V080 9999 FEW039 21/11 Q1020
Station Nevers
Date/Time 19 August 2019 12:00:00
Wind direction 320°
Wind speed 04 kts
Lowest cloud amount few clouds
Temperature 21°C
Dew point 11°C
Humidity 52%
QNH 1020 hPa
Weather condition n/a